Regional Weather Roundup
Issued by NWS Lake Charles, LA

Home | Current Version | Previous Version | Text Only | Print | Product List | Glossary On
Versions: 1 2 3 4 5 6 7 8 9 10 11 12 13 14 15 16 17 18 19 20 21 22 23 24 25 26 27 28 29 30 31 32 33 34 35 36 37 38 39 40 41 42 43 44 45 46 47 48 49 50
000
ASUS44 KLCH 261410
RWRLCH
REGIONAL WEATHER ROUNDUP
NATIONAL WEATHER SERVICE LAKE CHARLES LA
900 AM CDT SUN MAR 26 2017

Note: "fair" indicates few or no clouds below 12,000 feet with no
significant weather and/or obstructions to visibility.


ACROSS SOUTHEAST TEXAS

CITY           SKY/WX    TMP DP  RH WIND       PRES   REMARKS
BEAUMONT       CLOUDY    70  68  93 SE5       29.96R
BEAUMONT CITY  CLOUDY   N/A N/A N/A SE5       29.97R FOG
ORANGE         MOSUNNY   69  69 100 SE5       29.99R FOG
JASPER         FOG       62  62 100 CALM      30.00R VSB 1/2
$$

ACROSS CENTRAL LOUISIANA

CITY           SKY/WX    TMP DP  RH WIND       PRES   REMARKS
LEESVILLE      LGT RAIN  63  63 100 CALM      29.99R FOG
FULLERTON      FOG       64  64 100 CALM      29.97R VSB 1/2
ALEXANDRIA INT CLOUDY    65  64  97 CALM      29.98R FOG
ESLER FIELD    FOG       66  66 100 CALM      29.99R VSB 1
DERIDDER       FOG       66  65  95 SE3       30.00R VSB 1/2
OAKDALE        CLOUDY    67  67  98 S3        29.99R FOG
OPELOUSAS      PTSUNNY   68  67  98 MISG      30.00R
$$

ACROSS SOUTHWEST AND SOUTH CENTRAL LOUISIANA

CITY           SKY/WX    TMP DP  RH WIND       PRES   REMARKS
SULPHUR        FOG       69  69 100 SE5       29.98R VSB 1/2
LAKE CHARLES   FOG       68  68 100 CALM      29.97R VSB 1/2
CHENNAULT INT  NOT AVBL
CAMERON PHI    PTSUNNY   72  70  94 SE5       29.97R FOG
DEQUINCY       PTSUNNY   66  66  99 CALM      29.98R FOG
JENNINGS       CLOUDY    66  66 100 SE6       29.99R FOG
LAFAYETTE      FOG       69  68  96 CALM      30.00R VSB<1/4
NEW IBERIA     CLOUDY    70  68  93 SE5       30.01R FOG
ABBEVILLE      NOT AVBL
PATTERSON      CLOUDY    70  70 100 CALM      30.03R FOG
SALT POINT       N/A     71  70  96 CALM      30.01R
$$

SELECTED SITES ACROSS THE REGION

CITY           SKY/WX    TMP DP  RH WIND       PRES   REMARKS
HOUSTON BUSH   MOSUNNY   70  67  90 S5        29.95R
HOUSTON HOBBY  MOSUNNY   70  68  93 S3        29.94R
GALVESTON      PTSUNNY   74  71  91 S9        29.95R
COLLEGE STAT   CLOUDY    67  66  97 S9        29.92R FOG
CONROE         FOG       65  64  97 CALM      29.95R VSB 1
HUNTSVILLE     PTSUNNY   67  63  87 SE5       29.94R FOG
LUFKIN         CLOUDY    57  55  93 SE3       29.97R
SHREVEPORT     SUNNY     60  53  77 SE3       29.96R
MONROE         SUNNY     58  55  90 CALM      30.00R
NATCHEZ MS     CLOUDY    66  61  82 S6        30.01R
BATON ROUGE    CLOUDY    69  67  93 E5        30.02R FOG
N.O. INTL ARPT PTSUNNY   71  69  93 SW3       30.03R FOG
SLIDELL        CLOUDY    70  68  93 S3        30.03R
$$

MARINE REPORTS

STATION/POSITION TIME  SKY/WX   TEMP    WIND        PRES    VSBY
                                AIR SEA DIR/SP/G
                 (UTC)          (F)     (DEG/KT/KT) (MB)    (MI)
BUOY 30 S HIGH I 1350            72 71  150/  6/  8 1014.1R
WVE H/P(F/S)=  3/ 8

SEA RIM ST PARK  1400            71     170/  6/  7 1015.3R
PORT ARTHUR      1348               71  140/  3/  5 1014.9R
SABINE PASS N    1342            71 73  130/  5/  6 1016.0R
TEXAS POINT      NOT AVBL
CALCASIEU PASS   1348            71 72  140/  5/  6   N/A
LK CHARLES BEACH 1348            69 71              1015.4R
MARSH ISLAND     1300            72                   N/A
FRESH WATER LOCK 1348            72 73  130/  4/  5 1015.6R
AMERADA PASS     1348            71 61  170/  3/  5 1016.3R
$$



USA.gov is the U.S. government's official web portal to all federal, state and local government web resources and services.